RH
61 60 61 62 65 71 66 58 56 54 51 47 41 31 15 9 13 33 27 10 9 9 10 12 12 12 12
66 64 64 58 64 77 70 65 61 60 58 55 49 35 14 13 24 43 17 10 10 12 12 13 13 12 12
67 68 69 63 62 73 71 70 66 64 62 59 53 37 13 20 41 42 12 12 11 13 14 14 12 12 13
79 72 72 70 62 61 67 71 70 68 66 61 55 35 18 31 52 24 13 13 12 14 14 14 13 14 15
75 72 74 71 70 62 64 65 70 68 65 61 53 25 42 45 50 16 13 14 14 15 14 14 15 15 18
86 90 78 76 76 73 68 71 73 66 64 59 46 28 56 60 24 14 13 14 16 15 14 16 17 18 20
89 80 82 78 80 80 77 70 67 62 59 57 31 60 65 27 17 14 16 17 17 15 17 18 19 22 23
95 92 85 79 80 83 82 72 70 66 50 51 68 67 29 20 17 16 17 18 16 18 20 21 24 25 24
100 96 96 89 93 88 76 71 69 64 41 66 68 40 23 28 21 16 17 16 19 24 22 24 26 26 25
99 95 90 96 78 67 63 61 63 45 55 67 49 38 30 23 18 18 19 22 26 25 26 26 27 28 28
100 98 90 74 60 52 52 48 49 69 65 70 45 28 21 20 24 20 22 22 25 27 27 27 28 30 31
97 88 80 71 58 46 43 68 70 66 77 59 51 28 30 45 24 21 24 26 30 30 30 29 30 31 30
84 80 65 50 40 50 80 81 89 96 91 43 70 86 50 24 23 25 27 27 30 31 35 33 31 32 31
79 65 56 50 82 96 96 98 98 93 90 96 90 48 26 25 28 27 32 35 33 37 40 36 32 33 35
82 79 91 98 98 98 98 98 96 96 96 87 38 28 28 32 31 32 35 36 38 38 41 42 37 36 37
98 98 98 97 98 98 97 96 96 94 57 36 32 34 36 36 36 36 40 41 44 46 48 55 51 35 37
97 97 98 98 97 96 96 96 88 53 45 40 39 41 42 42 46 42 44 48 56 51 50 54 57 47 44
Wind_Speed
21 20 24 29 35 35 35 33 29 27 25 23 21 19 17 17 16 17 18 16 17 17 17 18 19 20 20
27 22 24 24 29 33 36 33 31 29 27 24 22 20 18 17 17 18 18 17 17 18 19 20 20 20 20
32 26 25 25 27 30 32 33 32 30 27 26 24 21 19 18 19 20 18 18 18 20 20 22 21 21 21
40 30 28 25 27 28 31 34 33 32 29 28 24 21 19 20 21 20 19 18 20 21 22 22 22 22 22
40 35 30 29 27 29 32 30 32 31 30 28 24 22 21 21 22 21 20 20 21 23 23 22 23 22 23
49 41 34 28 29 30 31 32 31 31 31 28 25 22 22 23 22 20 21 21 22 24 22 22 21 24 23
49 45 37 31 31 31 32 31 32 29 25 28 24 22 22 22 20 21 23 21 22 23 21 20 23 24 24
46 44 36 33 34 28 29 31 31 26 23 22 22 20 20 20 20 21 23 22 22 21 19 21 23 25 25
35 29 24 25 26 27 30 30 30 29 25 22 20 18 18 20 23 22 23 22 19 18 21 21 23 25 25
31 29 32 26 23 22 24 29 30 26 24 21 18 16 17 21 21 21 20 16 18 22 21 22 23 24 26
28 27 27 25 27 27 26 25 26 23 17 16 15 16 20 19 18 19 18 20 21 21 21 21 22 23 27
28 29 29 31 30 28 28 26 24 20 16 15 17 17 18 22 22 21 18 18 21 21 21 19 20 23 24
32 33 31 31 30 29 28 25 21 16 14 14 17 18 23 23 20 20 20 20 21 18 18 22 23 25 28
37 35 34 33 31 28 22 18 16 18 19 19 16 21 21 19 20 19 18 17 19 20 23 24 23 25 27
34 34 31 26 19 17 20 22 20 19 16 16 19 18 17 18 20 18 18 19 18 19 23 28 26 26 28
30 28 22 22 23 21 20 17 16 15 16 16 15 16 17 17 16 15 15 17 16 19 23 28 31 27 28
29 26 24 21 21 20 18 17 16 16 15 15 14 15 15 18 16 17 14 15 19 20 23 27 32 32 32
Wind_Direction
228 240 239 238 234 231 232 236 235 237 240 244 248 255 264 271 281 294 299 296 292 295 295 297 299 300 300
222 233 240 237 234 229 232 232 236 237 241 245 248 254 262 272 284 291 289 289 291 295 294 296 298 299 300
231 229 233 234 229 225 232 232 234 238 240 243 247 253 262 273 283 285 284 284 291 291 293 297 301 297 297
235 230 222 227 226 227 226 228 230 236 238 243 246 252 261 272 279 279 279 284 290 290 294 298 297 296 296
227 223 219 215 229 231 229 233 230 235 237 242 246 250 259 269 274 274 278 285 286 290 295 292 292 294 296
226 226 226 229 230 234 231 225 224 234 235 238 239 247 263 269 269 274 280 282 286 289 288 287 290 295 296
227 227 232 234 241 234 233 233 230 232 235 234 239 253 262 262 271 275 277 282 282 284 285 286 293 294 297
234 232 239 237 238 242 237 225 227 224 222 221 239 254 256 265 273 274 277 279 278 277 282 290 295 297 299
223 228 232 237 233 229 222 224 219 219 220 231 245 255 260 268 272 273 276 277 270 278 290 294 297 297 298
217 224 219 220 219 225 234 225 217 213 222 233 245 248 256 264 262 268 273 264 270 286 292 295 295 297 301
211 212 208 211 214 218 216 218 214 221 224 241 241 247 246 258 273 271 272 277 279 285 290 293 294 297 302
209 205 209 211 211 207 204 207 215 225 239 240 244 242 255 264 266 273 274 275 279 286 290 288 292 297 299
206 207 206 202 197 197 203 208 223 237 247 230 242 250 254 257 265 270 280 283 288 292 293 295 301 303 306
203 201 196 193 195 201 211 219 233 231 229 240 244 251 255 261 266 273 282 285 290 297 297 298 301 303 306
198 190 188 190 205 217 230 234 228 226 232 240 244 250 258 265 271 281 284 287 294 298 298 303 307 309 309
189 189 204 226 216 223 227 220 225 228 233 238 246 255 262 267 275 282 284 294 296 300 303 305 309 313 315
202 216 204 219 222 214 213 216 221 232 239 245 252 259 269 276 286 293 296 300 302 304 307 308 310 316 319